HVN131 VVDN-VVTS

Flight info

Callsign HVN131
Flight time N/A
Altitude 38000
Route SADIN1G SADIN Q1 DOVIN DOVI6E
Aircraft A20N/M-SDE2E3FGHIRWXY/LB1

Departure

Time 2026-05-07 16:01
Airport Da Nang International Airport (VVDN)

Arrival

Time N/A
Airport Tan Son Nhat International Airport (VVTS)
Time Latitude Longitude Altitude Speed Heading
2026-05-07 15:32 16.05302 108.20204 32 ft 0 kts 82°
2026-05-07 15:47 16.05302 108.20203 32 ft 1 kts 82°
2026-05-07 15:47 16.05301 108.20196 32 ft 1 kts 82°
2026-05-07 15:47 16.05300 108.20189 32 ft 1 kts 82°
2026-05-07 15:47 16.05299 108.20181 32 ft 1 kts 82°
2026-05-07 15:48 16.05298 108.20173 32 ft 1 kts 82°
2026-05-07 15:48 16.05297 108.20165 28 ft 1 kts 82°
2026-05-07 15:48 16.05295 108.20155 29 ft 2 kts 82°
2026-05-07 15:48 16.05293 108.20141 29 ft 2 kts 83°
2026-05-07 15:49 16.05292 108.20126 29 ft 2 kts 89°
2026-05-07 15:49 16.05292 108.20111 29 ft 2 kts 113°
2026-05-07 15:49 16.05299 108.20102 30 ft 0 kts 173°
2026-05-07 15:51 16.05298 108.20102 29 ft 1 kts 173°
2026-05-07 15:51 16.05288 108.20103 30 ft 1 kts 173°
2026-05-07 15:52 16.05286 108.20104 32 ft 0 kts 173°
2026-05-07 15:53 16.05283 108.20104 32 ft 2 kts 173°
2026-05-07 15:53 16.05261 108.20101 32 ft 4 kts 207°
2026-05-07 15:53 16.05240 108.20072 32 ft 6 kts 221°
2026-05-07 15:53 16.05191 108.20065 32 ft 9 kts 182°
2026-05-07 15:54 16.05146 108.20065 32 ft 10 kts 167°
2026-05-07 15:54 16.05070 108.20080 32 ft 13 kts 176°
2026-05-07 15:54 16.04971 108.20088 32 ft 16 kts 176°
2026-05-07 15:54 16.04899 108.20103 32 ft 8 kts 169°
2026-05-07 15:55 16.04831 108.20114 32 ft 11 kts 172°
2026-05-07 15:55 16.04745 108.20127 32 ft 14 kts 172°
2026-05-07 15:55 16.04643 108.20143 33 ft 16 kts 172°
2026-05-07 15:55 16.04524 108.20160 33 ft 18 kts 172°
2026-05-07 15:56 16.04390 108.20180 33 ft 20 kts 172°
2026-05-07 15:56 16.04245 108.20200 34 ft 22 kts 172°
2026-05-07 15:56 16.04090 108.20221 35 ft 23 kts 173°
2026-05-07 15:56 16.03925 108.20244 35 ft 24 kts 171°
2026-05-07 15:57 16.03755 108.20269 36 ft 26 kts 172°
2026-05-07 15:57 16.03573 108.20296 36 ft 27 kts 172°
2026-05-07 15:57 16.03420 108.20319 36 ft 17 kts 172°
2026-05-07 15:57 16.03294 108.20337 35 ft 20 kts 172°
2026-05-07 15:58 16.03155 108.20357 35 ft 17 kts 172°
2026-05-07 15:58 16.03083 108.20322 35 ft 1 kts 249°
2026-05-07 15:58 16.03079 108.20308 35 ft 5 kts 257°
2026-05-07 15:58 16.03079 108.20307 35 ft 0 kts 257°
2026-05-07 15:59 16.03075 108.20289 35 ft 6 kts 257°
2026-05-07 16:00 16.03082 108.20238 34 ft 9 kts 314°
2026-05-07 16:00 16.03140 108.20215 35 ft 0 kts 351°
2026-05-07 16:00 16.03244 108.20199 36 ft 39 kts 352°
2026-05-07 16:01 16.03744 108.20126 37 ft 104 kts 352°
2026-05-07 16:01 16.04647 108.19996 34 ft 155 kts 352°
2026-05-07 16:01 16.05809 108.19833 295 ft 172 kts 353°
2026-05-07 16:01 16.06979 108.19742 980 ft 166 kts 356°
2026-05-07 16:02 16.08188 108.19693 1418 ft 184 kts 359°
2026-05-07 16:02 16.09546 108.19656 1950 ft 205 kts 360°
2026-05-07 16:02 16.11046 108.19626 2379 ft 228 kts
2026-05-07 16:02 16.12713 108.19588 2840 ft 251 kts 360°
2026-05-07 16:03 16.14506 108.19654 3339 ft 271 kts 14°
2026-05-07 16:03 16.16175 108.20517 4211 ft 269 kts 43°
2026-05-07 16:03 16.17258 108.22071 5175 ft 267 kts 69°
2026-05-07 16:03 16.17575 108.23986 5998 ft 274 kts 88°
2026-05-07 16:04 16.17591 108.25989 6822 ft 278 kts 90°
2026-05-07 16:04 16.17588 108.28013 7609 ft 282 kts 90°
2026-05-07 16:04 16.17591 108.30052 8504 ft 282 kts 89°
2026-05-07 16:04 16.17605 108.32112 9264 ft 287 kts 89°
2026-05-07 16:05 16.17609 108.34203 10033 ft 291 kts 94°
2026-05-07 16:05 16.17062 108.36240 10723 ft 296 kts 118°
2026-05-07 16:05 16.15742 108.37851 11434 ft 300 kts 143°
2026-05-07 16:05 16.13822 108.38776 12140 ft 305 kts 168°
2026-05-07 16:06 16.11722 108.38929 12778 ft 313 kts 178°
2026-05-07 16:06 16.09467 108.38943 12990 ft 335 kts 179°
2026-05-07 16:06 16.07064 108.38944 13195 ft 354 kts 179°
2026-05-07 16:06 16.04566 108.38955 13726 ft 361 kts 179°
2026-05-07 16:07 16.02047 108.38977 14343 ft 363 kts 179°
2026-05-07 16:07 15.99507 108.39007 14930 ft 367 kts 179°
2026-05-07 16:07 15.96938 108.39042 15513 ft 370 kts 179°
2026-05-07 16:07 15.94343 108.39078 16087 ft 374 kts 179°
2026-05-07 16:08 15.91733 108.39116 16661 ft 377 kts 179°
2026-05-07 16:08 15.89103 108.39152 17204 ft 380 kts 179°
2026-05-07 16:08 15.86478 108.39186 17746 ft 383 kts 179°
2026-05-07 16:08 15.83786 108.39219 18273 ft 387 kts 179°
2026-05-07 16:09 15.81081 108.39252 18733 ft 390 kts 179°
2026-05-07 16:09 15.78356 108.39285 19196 ft 393 kts 179°
2026-05-07 16:09 15.75608 108.39319 19652 ft 396 kts 179°
2026-05-07 16:09 15.72829 108.39353 20108 ft 399 kts 179°
2026-05-07 16:10 15.70037 108.39387 20554 ft 403 kts 179°
2026-05-07 16:10 15.67257 108.39421 20985 ft 406 kts 179°
2026-05-07 16:10 15.64420 108.39456 21406 ft 410 kts 179°
2026-05-07 16:10 15.61554 108.39491 21855 ft 413 kts 179°
2026-05-07 16:11 15.58672 108.39526 22286 ft 416 kts 179°
2026-05-07 16:11 15.55765 108.39358 22712 ft 420 kts 187°
2026-05-07 16:11 15.52890 108.38718 23127 ft 424 kts 197°
2026-05-07 16:11 15.50131 108.37619 23552 ft 427 kts 204°
2026-05-07 16:12 15.47421 108.36321 23901 ft 429 kts 204°
2026-05-07 16:12 15.44697 108.35027 24281 ft 431 kts 204°
2026-05-07 16:12 15.41964 108.33735 24670 ft 433 kts 204°
2026-05-07 16:12 15.39250 108.32454 25037 ft 435 kts 204°
2026-05-07 16:13 15.36452 108.31133 25386 ft 437 kts 204°
2026-05-07 16:13 15.33707 108.29839 25742 ft 439 kts 204°
2026-05-07 16:13 15.30916 108.28523 26078 ft 441 kts 205°
2026-05-07 16:13 15.28107 108.27198 26430 ft 443 kts 205°
2026-05-07 16:14 15.25291 108.25871 26765 ft 445 kts 205°
2026-05-07 16:14 15.22466 108.24539 27083 ft 447 kts 205°
2026-05-07 16:14 15.19617 108.23197 27407 ft 449 kts 205°
2026-05-07 16:14 15.16794 108.21867 27704 ft 452 kts 205°
2026-05-07 16:15 15.13887 108.20499 28017 ft 454 kts 205°
2026-05-07 16:15 15.11028 108.19209 28313 ft 456 kts 201°
2026-05-07 16:15 15.07982 108.18248 28610 ft 458 kts 193°
2026-05-07 16:15 15.04819 108.17708 28876 ft 461 kts 186°
2026-05-07 16:16 15.01602 108.17570 29158 ft 463 kts 181°
2026-05-07 16:16 14.98367 108.17511 29422 ft 466 kts 181°